Overview Statistics Trail Chart Weather Telemetry Raw packets
 

This is the latest recevied weather packets stored in our database for station/object KC2GYU. If no packets are shown the sender has not sent any weather packets the latest 10 day(s).

<< 45 46 47 48 49 50 51 >>
Time Temp. Humidity Pressure Rain* Wind** Luminosity Snow
1777774785 11.11° C 60% 1012 hPa 0 mm - 0 W/m² -
1777774482 11.11° C 59% 1012.1 hPa 0 mm - 0 W/m² -
1777774180 11.11° C 59% 1011.8 hPa 0 mm - 0 W/m² -
1777773877 11.11° C 59% 1011.8 hPa 0 mm - 0 W/m² -
1777773573 11.11° C 59% 1011.9 hPa 0 mm - 0 W/m² -
1777773270 11.11° C 59% 1011.8 hPa 0 mm - 0 W/m² -
1777772966 11.11° C 60% 1012 hPa 0 mm - 0 W/m² -
1777772663 10.56° C 61% 1011.9 hPa 0 mm - 0 W/m² -
1777772361 10.56° C 63% 1011.9 hPa 0 mm - 0 W/m² -
1777772058 11.11° C 63% 1011.8 hPa 0 mm - 0 W/m² -
1777771755 11.11° C 61% 1011.7 hPa 0 mm - 0 W/m² -
1777771453 11.11° C 61% 1011.8 hPa 0 mm - 0 W/m² -
1777771149 11.67° C 61% 1011.5 hPa 0 mm - 0 W/m² -
1777770846 11.67° C 61% 1011.6 hPa 0 mm - 0 W/m² -
1777770543 11.67° C 61% 1011.6 hPa 0 mm - 0 W/m² -
1777770240 11.67° C 60% 1011.5 hPa 0 mm - 0 W/m² -
1777769936 11.67° C 61% 1011.4 hPa 0 mm - 0 W/m² -
1777769634 11.67° C 63% 1011.3 hPa 0 mm - 0 W/m² -
1777769330 11.67° C 62% 1011.5 hPa 0 mm - 0 W/m² -
1777769028 11.67° C 64% 1011.5 hPa 0 mm - 0 W/m² -
1777768725 11.67° C 64% 1011.4 hPa 0 mm - 0 W/m² -
1777768422 12.22° C 61% 1011.5 hPa 0 mm - 0 W/m² -
1777768119 12.22° C 60% 1011.1 hPa 0 mm - 0 W/m² -
1777767816 12.22° C 61% 1011 hPa 0 mm - 0 W/m² -
1777767512 12.22° C 62% 1011 hPa 0 mm - 0 W/m² -

* Rain latest hour (hover to see other rain measurements)
** Current wind speed in m/s (hover to see current wind gust speed)